sat.trackr.live / text

‹ back to catalog

STARLINK-31235

NORAD 59038 · 2024-038R

PAYLOAD ACTIVE UNKNOWN

§ Identity

Operator
Country
US
Launch date
2024-02-25
Launch site
AFETR
Launch vehicle
Mass (kg)
RCS (m²)

Purposes: comms

External: N2YO · Heavens-Above · Gunter

§ Orbital elements

Epoch: 2026-05-25T03:46:50.945376Z

Period
94.27 min
Inclination
43.0008°
Eccentricity
0.0001035
Mean motion
15.27578304 rev/d
Perigee alt
482.3 km
Apogee alt
483.8 km
Semi-major
6,861.2 km
B*
5.0599e-5
RAAN
311.6586°
Arg perigee
269.2900°
Mean anomaly
90.7833°
Rev number
12,649

§ Raw data

STARLINK-312351 59038U 24038R   26145.15753409  .00001131  00000+0  50599-4 0  99912 59038  43.0008 311.6586 0001035 269.2900  90.7833 15.27578304126493

JSON: /api/v1/satellites/59038 · /tle

For live sub-satellite position, see the globe view (requires WebGL).

§ Visibility from observer

Set your observer location to see the next 7 days of passes ≥ 10°. The values pass through the URL so the page stays shareable.

No JS? Fill the form by hand. The geolocation button needs JavaScript.